Multibeam Report for CV07_01


Ship Name: Celtic Voyager
Chief Scientist: Sheehan, K.
Geological Survey of Ireland
Source Organization: Geological Survey of Ireland (GSI)
Start Date: 2007-07-03
End Date: 2007-08-14


View ISO Metadata

Visit the full NCEI Bathymetry Viewer


Multibeam Bathymetry

Cruise Details

Project: INFOMAR
Instrument: Simrad EM1002

Data Quality

Number of Files: 648
Number of Records: 10085834
BATHYMETRY DATA Quantity Percentage
Number of Beams 1250807361 100%
Number of Good Beams 1246275131 99.64%
Number of Zero Beams 4532230 0.36%
Number of Flagged Beams 0 0%
AMPLITUDE DATA Quantity Percentage
Number of Beams 1250807361 100%
Number of Good Beams 1246275131 99.64%
Number of Zero Beams 4532230 0.36%
Number of Flagged Beams 0 0%
SIDESCAN DATA Quantity Percentage
Number of Pixels 10327658496 100%
Number of Good Pixels 6359617367 61.58%
Number of Zero Pixels 0 0%
Number of Flagged Pixels 3968041129 38.42%

Navigation Totals

Total Time: 588.343 hours
Total Track Length: 7503.5991 km
Average Speed: 12.754 km/hr (6.8866 knots)

Cruise Bounds

Northern Extent: 54.334507
Southern Extent: 52.823452
Western Extent: -10.40706
Eastern Extent: -5.37104

Limits

Minimum Sonar Depth -1.04 Maximum Sonar Depth 8.27
Minimum Altitude -0.19 Maximum Altitude 146.07
Minimum Depth 5.61 Maximum Depth 157.71
Minimum Amplitude -64 Maximum Amplitude 12.5
Minimum Sidescan -64 Maximum Sidescan 38.6

File Information

Full Resolution Bathymetry as collected (raw): 647

Files File Size Description
0032_20070711_005208_raw.mb56.gz 28.66MB Simrad multibeam vendor format
0033_20070711_014151_raw.mb56.gz 30.71MB Simrad multibeam vendor format
0034_20070711_023321_raw.mb56.gz 28.21MB Simrad multibeam vendor format
0035_20070711_032047_raw.mb56.gz 30.72MB Simrad multibeam vendor format
0036_20070711_041323_raw.mb56.gz 30.84MB Simrad multibeam vendor format
0037_20070711_050546_raw.mb56.gz 31.84MB Simrad multibeam vendor format
0038_20070711_055910_raw.mb56.gz 30.69MB Simrad multibeam vendor format
0039_20070711_065149_raw.mb56.gz 32.81MB Simrad multibeam vendor format
0040_20070711_081030_raw.mb56.gz 27.14MB Simrad multibeam vendor format
0041_20070711_091615_raw.mb56.gz 70.74MB Simrad multibeam vendor format
0042_20070711_102833_raw.mb56.gz 20.18MB Simrad multibeam vendor format
0043_20070711_104851_raw.mb56.gz 17.32MB Simrad multibeam vendor format
0044_20070711_110654_raw.mb56.gz 13.59MB Simrad multibeam vendor format
0045_20070711_112215_raw.mb56.gz 15.49MB Simrad multibeam vendor format
0046_20070711_120544_raw.mb56.gz 29.03MB Simrad multibeam vendor format
0047_20070711_125345_raw.mb56.gz 30.52MB Simrad multibeam vendor format
0048_20070711_134539_raw.mb56.gz 27.61MB Simrad multibeam vendor format
0049_20070711_142941_raw.mb56.gz 32.26MB Simrad multibeam vendor format
0050_20070711_151824_raw.mb56.gz 29.48MB Simrad multibeam vendor format
0051_20070711_160052_raw.mb56.gz 8.23MB Simrad multibeam vendor format
0052_20070711_161332_raw.mb56.gz 37.03MB Simrad multibeam vendor format
0053_20070711_170109_raw.mb56.gz 32.52MB Simrad multibeam vendor format
0054_20070711_174803_raw.mb56.gz 25.13MB Simrad multibeam vendor format
0055_20070711_182139_raw.mb56.gz 17.42MB Simrad multibeam vendor format
0056_20070711_184725_raw.mb56.gz 16.47MB Simrad multibeam vendor format
0057_20070711_191031_raw.mb56.gz 10.99MB Simrad multibeam vendor format
0058_20070711_192746_raw.mb56.gz 25.81MB Simrad multibeam vendor format
0059_20070711_195954_raw.mb56.gz 28.95MB Simrad multibeam vendor format
0060_20070711_204042_raw.mb56.gz 31.30MB Simrad multibeam vendor format
0061_20070711_212556_raw.mb56.gz 29.96MB Simrad multibeam vendor format
0062_20070711_221026_raw.mb56.gz 32.17MB Simrad multibeam vendor format
0063_20070711_225803_raw.mb56.gz 30.21MB Simrad multibeam vendor format
0064_20070711_234056_raw.mb56.gz 29.75MB Simrad multibeam vendor format
0065_20070712_002430_raw.mb56.gz 17.20MB Simrad multibeam vendor format
9001_20070713_141616_raw.mb56.gz 121.90MB Simrad multibeam vendor format
9002_20070713_162151_raw.mb56.gz 134.53MB Simrad multibeam vendor format
9003_20070713_193731_raw.mb56.gz 93.02MB Simrad multibeam vendor format
9004_20070713_211510_raw.mb56.gz 87.83MB Simrad multibeam vendor format
9005_20070713_224343_raw.mb56.gz 92.49MB Simrad multibeam vendor format
9006_20070714_001351_raw.mb56.gz 90.99MB Simrad multibeam vendor format
9007_20070714_014421_raw.mb56.gz 91.72MB Simrad multibeam vendor format
9008_20070714_031507_raw.mb56.gz 95.60MB Simrad multibeam vendor format
9009_20070714_045231_raw.mb56.gz 97.56MB Simrad multibeam vendor format
9010_20070714_063230_raw.mb56.gz 88.88MB Simrad multibeam vendor format
9011_20070714_080506_raw.mb56.gz 85.54MB Simrad multibeam vendor format
9012_20070714_093410_raw.mb56.gz 86.32MB Simrad multibeam vendor format
9013_20070714_110325_raw.mb56.gz 93.46MB Simrad multibeam vendor format
9014_20070714_123928_raw.mb56.gz 87.38MB Simrad multibeam vendor format
9015_20070714_142213_raw.mb56.gz 39.14MB Simrad multibeam vendor format
9016_20070714_155810_raw.mb56.gz 58.23MB Simrad multibeam vendor format
9017_20070714_170241_raw.mb56.gz 94.24MB Simrad multibeam vendor format
9018_20070714_184404_raw.mb56.gz 86.65MB Simrad multibeam vendor format
9019_20070714_201739_raw.mb56.gz 83.74MB Simrad multibeam vendor format
9020_20070714_214457_raw.mb56.gz 83.00MB Simrad multibeam vendor format
9021_20070714_231056_raw.mb56.gz 90.02MB Simrad multibeam vendor format
9022_20070715_004244_raw.mb56.gz 96.20MB Simrad multibeam vendor format
9023_20070715_021943_raw.mb56.gz 83.72MB Simrad multibeam vendor format
9024_20070715_034713_raw.mb56.gz 95.80MB Simrad multibeam vendor format
9025_20070715_052542_raw.mb56.gz 82.55MB Simrad multibeam vendor format
9026_20070715_065407_raw.mb56.gz 85.63MB Simrad multibeam vendor format
9027_20070715_082545_raw.mb56.gz 87.76MB Simrad multibeam vendor format
9028_20070715_095806_raw.mb56.gz 88.72MB Simrad multibeam vendor format
9029_20070715_112729_raw.mb56.gz 90.26MB Simrad multibeam vendor format
9030_20070715_130331_raw.mb56.gz 93.53MB Simrad multibeam vendor format
9031_20070715_144340_raw.mb56.gz 83.80MB Simrad multibeam vendor format
9032_20070715_161406_raw.mb56.gz 83.93MB Simrad multibeam vendor format
9033_20070715_174420_raw.mb56.gz 81.23MB Simrad multibeam vendor format
9034_20070715_191124_raw.mb56.gz 82.81MB Simrad multibeam vendor format
9035_20070715_204150_raw.mb56.gz 84.61MB Simrad multibeam vendor format
9036_20070715_221318_raw.mb56.gz 82.49MB Simrad multibeam vendor format
9037_20070715_234024_raw.mb56.gz 87.50MB Simrad multibeam vendor format
9038_20070716_211625_raw.mb56.gz 85.17MB Simrad multibeam vendor format
9039_20070716_225414_raw.mb56.gz 89.34MB Simrad multibeam vendor format
9040_20070717_003735_raw.mb56.gz 87.37MB Simrad multibeam vendor format
9041_20070717_021627_raw.mb56.gz 81.94MB Simrad multibeam vendor format
9042_20070717_034856_raw.mb56.gz 94.00MB Simrad multibeam vendor format
9043_20070717_053348_raw.mb56.gz 83.29MB Simrad multibeam vendor format
9044_20070717_070734_raw.mb56.gz 87.66MB Simrad multibeam vendor format
9045_20070717_084711_raw.mb56.gz 86.25MB Simrad multibeam vendor format
9046_20070717_102239_raw.mb56.gz 81.00MB Simrad multibeam vendor format
9047_20070717_132118_raw.mb56.gz 102.90MB Simrad multibeam vendor format
9048_20070717_191729_raw.mb56.gz 94.53MB Simrad multibeam vendor format
9049_20070717_210120_raw.mb56.gz 97.65MB Simrad multibeam vendor format
9050_20070717_224339_raw.mb56.gz 97.89MB Simrad multibeam vendor format
9051_20070718_002837_raw.mb56.gz 92.99MB Simrad multibeam vendor format
9052_20070718_020747_raw.mb56.gz 110.32MB Simrad multibeam vendor format
9053_20070718_040404_raw.mb56.gz 92.07MB Simrad multibeam vendor format
9054_20070718_054236_raw.mb56.gz 103.21MB Simrad multibeam vendor format
9055_20070718_073045_raw.mb56.gz 57.26MB Simrad multibeam vendor format
9056_20070718_090352_raw.mb56.gz 91.68MB Simrad multibeam vendor format
9057_20070718_104317_raw.mb56.gz 90.15MB Simrad multibeam vendor format
9058_20070718_121819_raw.mb56.gz 34.27MB Simrad multibeam vendor format
9059_20070718_132545_raw.mb56.gz 3.51MB Simrad multibeam vendor format
9060_20070718_133217_raw.mb56.gz 3.78MB Simrad multibeam vendor format
9061_20070718_134440_raw.mb56.gz 3.13MB Simrad multibeam vendor format
9062_20070718_135316_raw.mb56.gz 2.12MB Simrad multibeam vendor format
9063_20070718_140913_raw.mb56.gz 1.65MB Simrad multibeam vendor format
9064_20070718_141901_raw.mb56.gz 61.52MB Simrad multibeam vendor format
9065_20070718_160717_raw.mb56.gz 22.08MB Simrad multibeam vendor format
9066_20070718_163833_raw.mb56.gz 95.88MB Simrad multibeam vendor format
9067_20070718_181702_raw.mb56.gz 89.15MB Simrad multibeam vendor format
9068_20070718_195203_raw.mb56.gz 61.33MB Simrad multibeam vendor format
9070_20070718_212353_raw.mb56.gz 28.30MB Simrad multibeam vendor format
9071_20070718_215454_raw.mb56.gz 89.60MB Simrad multibeam vendor format
9072_20070718_233011_raw.mb56.gz 85.54MB Simrad multibeam vendor format
9073_20070719_005626_raw.mb56.gz 21.87MB Simrad multibeam vendor format
9074_20070719_014733_raw.mb56.gz 80.49MB Simrad multibeam vendor format
9075_20070719_031307_raw.mb56.gz 84.03MB Simrad multibeam vendor format
9076_20070719_044005_raw.mb56.gz 79.67MB Simrad multibeam vendor format
9077_20070719_060539_raw.mb56.gz 80.22MB Simrad multibeam vendor format
9078_20070719_072823_raw.mb56.gz 86.04MB Simrad multibeam vendor format
9079_20070719_085758_raw.mb56.gz 77.05MB Simrad multibeam vendor format
9080_20070719_101807_raw.mb56.gz 88.13MB Simrad multibeam vendor format
9081_20070719_115121_raw.mb56.gz 76.68MB Simrad multibeam vendor format
9082_20070719_130936_raw.mb56.gz 82.70MB Simrad multibeam vendor format
9083_20070719_143557_raw.mb56.gz 80.98MB Simrad multibeam vendor format
9084_20070719_155753_raw.mb56.gz 78.11MB Simrad multibeam vendor format
9085_20070719_174340_raw.mb56.gz 92.83MB Simrad multibeam vendor format
9086_20070719_191832_raw.mb56.gz 89.59MB Simrad multibeam vendor format
9087_20070719_204955_raw.mb56.gz 81.57MB Simrad multibeam vendor format
9088_20070719_221252_raw.mb56.gz 90.80MB Simrad multibeam vendor format
9089_20070719_234656_raw.mb56.gz 81.55MB Simrad multibeam vendor format
9090_20070720_010837_raw.mb56.gz 88.77MB Simrad multibeam vendor format
9091_20070720_025144_raw.mb56.gz 87.84MB Simrad multibeam vendor format
9092_20070720_041922_raw.mb56.gz 1.57MB Simrad multibeam vendor format
9093_20070720_045331_raw.mb56.gz 85.34MB Simrad multibeam vendor format
9094_20070720_061930_raw.mb56.gz 89.53MB Simrad multibeam vendor format
9095_20070720_075039_raw.mb56.gz 84.89MB Simrad multibeam vendor format
9096_20070720_091728_raw.mb56.gz 12.65MB Simrad multibeam vendor format
9097_20070720_163348_raw.mb56.gz 47.53MB Simrad multibeam vendor format
9098_20070720_174005_raw.mb56.gz 71.07MB Simrad multibeam vendor format
9099_20070720_185221_raw.mb56.gz 77.92MB Simrad multibeam vendor format
9100_20070720_201129_raw.mb56.gz 81.15MB Simrad multibeam vendor format
9101_20070720_213421_raw.mb56.gz 81.98MB Simrad multibeam vendor format
9102_20070720_225742_raw.mb56.gz 76.74MB Simrad multibeam vendor format
9103_20070721_001521_raw.mb56.gz 81.84MB Simrad multibeam vendor format
9104_20070721_013728_raw.mb56.gz 77.92MB Simrad multibeam vendor format
9105_20070721_025525_raw.mb56.gz 77.73MB Simrad multibeam vendor format
9106_20070721_041331_raw.mb56.gz 78.80MB Simrad multibeam vendor format
9107_20070721_053211_raw.mb56.gz 73.84MB Simrad multibeam vendor format
9108_20070721_064638_raw.mb56.gz 81.96MB Simrad multibeam vendor format
9109_20070721_080904_raw.mb56.gz 73.95MB Simrad multibeam vendor format
9110_20070721_092333_raw.mb56.gz 80.02MB Simrad multibeam vendor format
9111_20070721_104514_raw.mb56.gz 80.15MB Simrad multibeam vendor format
9112_20070722_180827_raw.mb56.gz 80.64MB Simrad multibeam vendor format
9113_20070722_193357_raw.mb56.gz 84.72MB Simrad multibeam vendor format
9114_20070722_205853_raw.mb56.gz 79.00MB Simrad multibeam vendor format
9115_20070722_221907_raw.mb56.gz 81.59MB Simrad multibeam vendor format
9116_20070722_234118_raw.mb56.gz 30.60MB Simrad multibeam vendor format
9117_20070723_010955_raw.mb56.gz 14.45MB Simrad multibeam vendor format
9118_20070723_015206_raw.mb56.gz 77.72MB Simrad multibeam vendor format
9119_20070723_031145_raw.mb56.gz 79.22MB Simrad multibeam vendor format
9120_20070723_043111_raw.mb56.gz 76.94MB Simrad multibeam vendor format
9121_20070723_054924_raw.mb56.gz 76.85MB Simrad multibeam vendor format
9122_20070723_070750_raw.mb56.gz 81.19MB Simrad multibeam vendor format
9123_20070723_082908_raw.mb56.gz 82.08MB Simrad multibeam vendor format
9124_20070723_095213_raw.mb56.gz 78.44MB Simrad multibeam vendor format
9125_20070723_111048_raw.mb56.gz 49.26MB Simrad multibeam vendor format
9126_20070724_223649_raw.mb56.gz 37.18MB Simrad multibeam vendor format
9127_20070724_231723_raw.mb56.gz 84.56MB Simrad multibeam vendor format
9128_20070725_004205_raw.mb56.gz 66.41MB Simrad multibeam vendor format
9129_20070725_015328_raw.mb56.gz 62.94MB Simrad multibeam vendor format
9130_20070725_025705_raw.mb56.gz 67.29MB Simrad multibeam vendor format
9131_20070725_040800_raw.mb56.gz 67.64MB Simrad multibeam vendor format
9132_20070725_051533_raw.mb56.gz 43.65MB Simrad multibeam vendor format
9133_20070725_184619_raw.mb56.gz 62.45MB Simrad multibeam vendor format
9134_20070725_195026_raw.mb56.gz 62.62MB Simrad multibeam vendor format
9135_20070725_205146_raw.mb56.gz 71.85MB Simrad multibeam vendor format
9136_20070725_220419_raw.mb56.gz 58.99MB Simrad multibeam vendor format
9137_20070725_230421_raw.mb56.gz 57.26MB Simrad multibeam vendor format
9138_20070726_000843_raw.mb56.gz 19.32MB Simrad multibeam vendor format
9139_20070726_002838_raw.mb56.gz 57.50MB Simrad multibeam vendor format
9140_20070726_012638_raw.mb56.gz 68.60MB Simrad multibeam vendor format
9141_20070726_023438_raw.mb56.gz 61.71MB Simrad multibeam vendor format
9142_20070726_033632_raw.mb56.gz 66.08MB Simrad multibeam vendor format
9143_20070726_044222_raw.mb56.gz 60.25MB Simrad multibeam vendor format
9144_20070726_054215_raw.mb56.gz 63.92MB Simrad multibeam vendor format
9145_20070726_064535_raw.mb56.gz 59.55MB Simrad multibeam vendor format
9146_20070726_074435_raw.mb56.gz 65.22MB Simrad multibeam vendor format
9147_20070726_084905_raw.mb56.gz 60.03MB Simrad multibeam vendor format
9148_20070726_094946_raw.mb56.gz 63.30MB Simrad multibeam vendor format
9149_20070726_105333_raw.mb56.gz 61.22MB Simrad multibeam vendor format
9150_20070726_115448_raw.mb56.gz 65.98MB Simrad multibeam vendor format
9151_20070726_125939_raw.mb56.gz 65.13MB Simrad multibeam vendor format
9152_20070726_140424_raw.mb56.gz 69.20MB Simrad multibeam vendor format
9153_20070726_151123_raw.mb56.gz 68.03MB Simrad multibeam vendor format
9154_20070726_161723_raw.mb56.gz 66.39MB Simrad multibeam vendor format
9155_20070726_172146_raw.mb56.gz 65.07MB Simrad multibeam vendor format
9156_20070726_182511_raw.mb56.gz 26.35MB Simrad multibeam vendor format
9157_20070726_185833_raw.mb56.gz 45.20MB Simrad multibeam vendor format
9158_20070726_194228_raw.mb56.gz 64.74MB Simrad multibeam vendor format
9159_20070726_204505_raw.mb56.gz 66.60MB Simrad multibeam vendor format
9160_20070726_214933_raw.mb56.gz 65.24MB Simrad multibeam vendor format
9161_20070726_225304_raw.mb56.gz 67.45MB Simrad multibeam vendor format
9162_20070726_235917_raw.mb56.gz 60.08MB Simrad multibeam vendor format
9163_20070727_005850_raw.mb56.gz 63.82MB Simrad multibeam vendor format
9164_20070727_020154_raw.mb56.gz 59.79MB Simrad multibeam vendor format
9165_20070727_030107_raw.mb56.gz 62.15MB Simrad multibeam vendor format
9166_20070727_040328_raw.mb56.gz 58.49MB Simrad multibeam vendor format
9167_20070727_050143_raw.mb56.gz 72.03MB Simrad multibeam vendor format
9168_20070727_061252_raw.mb56.gz 72.66MB Simrad multibeam vendor format
9169_20070727_072435_raw.mb56.gz 75.08MB Simrad multibeam vendor format
9170_20070727_083810_raw.mb56.gz 24.08MB Simrad multibeam vendor format
9171_20070727_090917_raw.mb56.gz 52.63MB Simrad multibeam vendor format
9172_20070727_100306_raw.mb56.gz 72.70MB Simrad multibeam vendor format
9173_20070727_111517_raw.mb56.gz 66.30MB Simrad multibeam vendor format
9174_20070727_122053_raw.mb56.gz 65.60MB Simrad multibeam vendor format
9175_20070727_132617_raw.mb56.gz 63.96MB Simrad multibeam vendor format
9176_20070727_143022_raw.mb56.gz 65.93MB Simrad multibeam vendor format
9177_20070727_153648_raw.mb56.gz 66.72MB Simrad multibeam vendor format
9178_20070727_164431_raw.mb56.gz 66.12MB Simrad multibeam vendor format
9179_20070727_175136_raw.mb56.gz 64.23MB Simrad multibeam vendor format
9180_20070727_185829_raw.mb56.gz 62.91MB Simrad multibeam vendor format
9181_20070727_204011_raw.mb56.gz 8.90MB Simrad multibeam vendor format
9182_20070727_205603_raw.mb56.gz 2.20MB Simrad multibeam vendor format
9183_20070727_210734_raw.mb56.gz 3.47MB Simrad multibeam vendor format
9184_20070727_211708_raw.mb56.gz 2.52MB Simrad multibeam vendor format
9185_20070727_214305_raw.mb56.gz 495.9KB Simrad multibeam vendor format
9186_20070727_214353_raw.mb56.gz 0.78MB Simrad multibeam vendor format
9187_20070727_214644_raw.mb56.gz 1.16MB Simrad multibeam vendor format
9188_20070727_214929_raw.mb56.gz 4.16MB Simrad multibeam vendor format
9189_20070727_220948_raw.mb56.gz 4.43MB Simrad multibeam vendor format
9190_20070727_224844_raw.mb56.gz 6.32MB Simrad multibeam vendor format
9191_20070727_233915_raw.mb56.gz 70.35MB Simrad multibeam vendor format
9192_20070728_005107_raw.mb56.gz 55.32MB Simrad multibeam vendor format
9193_20070728_014659_raw.mb56.gz 54.84MB Simrad multibeam vendor format
9194_20070728_024431_raw.mb56.gz 56.98MB Simrad multibeam vendor format
9195_20070728_034209_raw.mb56.gz 56.55MB Simrad multibeam vendor format
9196_20070728_044151_raw.mb56.gz 3.66MB Simrad multibeam vendor format
9197_20070728_044900_raw.mb56.gz 2.76MB Simrad multibeam vendor format
9198_20070728_045352_raw.mb56.gz 54.71MB Simrad multibeam vendor format
9199_20070728_054949_raw.mb56.gz 55.75MB Simrad multibeam vendor format
9200_20070728_064704_raw.mb56.gz 53.89MB Simrad multibeam vendor format
9201_20070728_074227_raw.mb56.gz 51.71MB Simrad multibeam vendor format
9202_20070728_083529_raw.mb56.gz 49.49MB Simrad multibeam vendor format
9203_20070728_092607_raw.mb56.gz 50.63MB Simrad multibeam vendor format
9204_20070728_101805_raw.mb56.gz 29.76MB Simrad multibeam vendor format
9205_20070730_214213_raw.mb56.gz 22.06MB Simrad multibeam vendor format
9206_20070730_220527_raw.mb56.gz 55.36MB Simrad multibeam vendor format
9207_20070730_230427_raw.mb56.gz 52.83MB Simrad multibeam vendor format
9208_20070731_000732_raw.mb56.gz 2.49MB Simrad multibeam vendor format
9209_20070731_002511_raw.mb56.gz 51.88MB Simrad multibeam vendor format
9210_20070731_011945_raw.mb56.gz 54.22MB Simrad multibeam vendor format
9211_20070731_021657_raw.mb56.gz 3.07MB Simrad multibeam vendor format
9212_20070731_022435_raw.mb56.gz 4.44MB Simrad multibeam vendor format
9213_20070731_022942_raw.mb56.gz 3.01MB Simrad multibeam vendor format
9214_20070731_025303_raw.mb56.gz 2.12MB Simrad multibeam vendor format
9215_20070801_224008_raw.mb56.gz 52.82MB Simrad multibeam vendor format
9216_20070801_233501_raw.mb56.gz 49.99MB Simrad multibeam vendor format
9217_20070802_002539_raw.mb56.gz 46.34MB Simrad multibeam vendor format
9218_20070802_011404_raw.mb56.gz 46.22MB Simrad multibeam vendor format
9219_20070802_020122_raw.mb56.gz 45.34MB Simrad multibeam vendor format
9220_20070802_024948_raw.mb56.gz 47.67MB Simrad multibeam vendor format
9221_20070802_033928_raw.mb56.gz 44.45MB Simrad multibeam vendor format
9222_20070802_042701_raw.mb56.gz 46.77MB Simrad multibeam vendor format
9223_20070802_051733_raw.mb56.gz 48.07MB Simrad multibeam vendor format
9224_20070802_060809_raw.mb56.gz 50.44MB Simrad multibeam vendor format
9225_20070802_182151_raw.mb56.gz 36.50MB Simrad multibeam vendor format
9226_20070802_203136_raw.mb56.gz 30.53MB Simrad multibeam vendor format
9227_20070802_211331_raw.mb56.gz 63.25MB Simrad multibeam vendor format
9228_20070802_224116_raw.mb56.gz 63.68MB Simrad multibeam vendor format
9229_20070803_000031_raw.mb56.gz 63.28MB Simrad multibeam vendor format
9230_20070803_011846_raw.mb56.gz 68.53MB Simrad multibeam vendor format
9231_20070803_024405_raw.mb56.gz 60.31MB Simrad multibeam vendor format
9232_20070803_040249_raw.mb56.gz 72.88MB Simrad multibeam vendor format
9233_20070803_053610_raw.mb56.gz 60.30MB Simrad multibeam vendor format
9234_20070803_105744_raw.mb56.gz 75.23MB Simrad multibeam vendor format
9235_20070803_124911_raw.mb56.gz 67.92MB Simrad multibeam vendor format
9236_20070803_155626_raw.mb56.gz 72.89MB Simrad multibeam vendor format
9237_20070803_170153_raw.mb56.gz 66.87MB Simrad multibeam vendor format
9238_20070803_180605_raw.mb56.gz 93.75MB Simrad multibeam vendor format
9239_20070803_193231_raw.mb56.gz 65.39MB Simrad multibeam vendor format
9240_20070803_204059_raw.mb56.gz 96.34MB Simrad multibeam vendor format
9241_20070803_221145_raw.mb56.gz 65.76MB Simrad multibeam vendor format
9242_20070803_231807_raw.mb56.gz 81.20MB Simrad multibeam vendor format
9243_20070804_003429_raw.mb56.gz 68.68MB Simrad multibeam vendor format
9244_20070804_013917_raw.mb56.gz 90.17MB Simrad multibeam vendor format
9245_20070804_030317_raw.mb56.gz 64.10MB Simrad multibeam vendor format
9246_20070804_040522_raw.mb56.gz 91.07MB Simrad multibeam vendor format
9247_20070804_053034_raw.mb56.gz 64.86MB Simrad multibeam vendor format
9248_20070804_063448_raw.mb56.gz 86.42MB Simrad multibeam vendor format
9249_20070804_075834_raw.mb56.gz 68.45MB Simrad multibeam vendor format
9250_20070804_090727_raw.mb56.gz 84.25MB Simrad multibeam vendor format
9251_20070804_102821_raw.mb56.gz 74.08MB Simrad multibeam vendor format
9252_20070804_114007_raw.mb56.gz 58.29MB Simrad multibeam vendor format
9253_20070804_123652_raw.mb56.gz 49.37MB Simrad multibeam vendor format
9254_20070804_132619_raw.mb56.gz 107.51MB Simrad multibeam vendor format
9255_20070804_150556_raw.mb56.gz 66.32MB Simrad multibeam vendor format
9256_20070804_160920_raw.mb56.gz 76.89MB Simrad multibeam vendor format
9257_20070804_172226_raw.mb56.gz 62.63MB Simrad multibeam vendor format
9258_20070804_182916_raw.mb56.gz 9.59MB Simrad multibeam vendor format
9259_20070804_184803_raw.mb56.gz 1.24MB Simrad multibeam vendor format
9260_20070804_185303_raw.mb56.gz 2.36MB Simrad multibeam vendor format
9261_20070804_190638_raw.mb56.gz 4.45MB Simrad multibeam vendor format
9262_20070804_193827_raw.mb56.gz 4.58MB Simrad multibeam vendor format
9263_20070804_194909_raw.mb56.gz 7.14MB Simrad multibeam vendor format
9264_20070804_200644_raw.mb56.gz 8.12MB Simrad multibeam vendor format
9265_20070804_201902_raw.mb56.gz 5.87MB Simrad multibeam vendor format
9266_20070804_203831_raw.mb56.gz 2.89MB Simrad multibeam vendor format
9267_20070804_204740_raw.mb56.gz 6.49MB Simrad multibeam vendor format
9268_20070804_223434_raw.mb56.gz 94.35MB Simrad multibeam vendor format
9269_20070805_003132_raw.mb56.gz 82.07MB Simrad multibeam vendor format
9270_20070805_021155_raw.mb56.gz 103.24MB Simrad multibeam vendor format
9271_20070805_041628_raw.mb56.gz 67.78MB Simrad multibeam vendor format
9272_20070805_055231_raw.mb56.gz 69.40MB Simrad multibeam vendor format
9273_20070805_071543_raw.mb56.gz 66.75MB Simrad multibeam vendor format
9274_20070805_083517_raw.mb56.gz 65.44MB Simrad multibeam vendor format
9275_20070805_095519_raw.mb56.gz 74.76MB Simrad multibeam vendor format
9276_20070805_122040_raw.mb56.gz 34.60MB Simrad multibeam vendor format
9277_20070805_125511_raw.mb56.gz 39.16MB Simrad multibeam vendor format
9278_20070805_133318_raw.mb56.gz 40.07MB Simrad multibeam vendor format
9279_20070805_141050_raw.mb56.gz 37.04MB Simrad multibeam vendor format
9280_20070805_144942_raw.mb56.gz 40.94MB Simrad multibeam vendor format
9281_20070805_152801_raw.mb56.gz 35.13MB Simrad multibeam vendor format
9282_20070805_160157_raw.mb56.gz 41.34MB Simrad multibeam vendor format
9283_20070805_164147_raw.mb56.gz 39.86MB Simrad multibeam vendor format
9284_20070805_172059_raw.mb56.gz 46.80MB Simrad multibeam vendor format
9285_20070805_180606_raw.mb56.gz 37.72MB Simrad multibeam vendor format
9286_20070805_184342_raw.mb56.gz 44.40MB Simrad multibeam vendor format
9287_20070805_192720_raw.mb56.gz 34.62MB Simrad multibeam vendor format
9288_20070805_200420_raw.mb56.gz 39.96MB Simrad multibeam vendor format
9289_20070805_205006_raw.mb56.gz 1.75MB Simrad multibeam vendor format
9290_20070805_205526_raw.mb56.gz 2.11MB Simrad multibeam vendor format
9291_20070805_210032_raw.mb56.gz 2.44MB Simrad multibeam vendor format
9292_20070805_210741_raw.mb56.gz 3.48MB Simrad multibeam vendor format
9293_20070805_211814_raw.mb56.gz 2.74MB Simrad multibeam vendor format
9294_20070805_213629_raw.mb56.gz 6.74MB Simrad multibeam vendor format
9295_20070805_215150_raw.mb56.gz 22.07MB Simrad multibeam vendor format
9296_20070805_221510_raw.mb56.gz 23.36MB Simrad multibeam vendor format
9297_20070805_224743_raw.mb56.gz 5.61MB Simrad multibeam vendor format
9298_20070805_231238_raw.mb56.gz 18.10MB Simrad multibeam vendor format
9299_20070805_233727_raw.mb56.gz 17.26MB Simrad multibeam vendor format
9300_20070806_000836_raw.mb56.gz 19.83MB Simrad multibeam vendor format
9301_20070806_003303_raw.mb56.gz 19.08MB Simrad multibeam vendor format
9302_20070806_005653_raw.mb56.gz 18.63MB Simrad multibeam vendor format
9303_20070806_012053_raw.mb56.gz 19.06MB Simrad multibeam vendor format
9304_20070806_014904_raw.mb56.gz 18.79MB Simrad multibeam vendor format
9305_20070806_021307_raw.mb56.gz 18.02MB Simrad multibeam vendor format
9306_20070806_023530_raw.mb56.gz 18.27MB Simrad multibeam vendor format
9307_20070806_025811_raw.mb56.gz 18.22MB Simrad multibeam vendor format
9308_20070806_032238_raw.mb56.gz 18.36MB Simrad multibeam vendor format
9309_20070806_034647_raw.mb56.gz 17.36MB Simrad multibeam vendor format
9310_20070806_040912_raw.mb56.gz 18.47MB Simrad multibeam vendor format
9311_20070806_071450_raw.mb56.gz 65.86MB Simrad multibeam vendor format
9312_20070806_083233_raw.mb56.gz 72.33MB Simrad multibeam vendor format
9313_20070806_095758_raw.mb56.gz 66.45MB Simrad multibeam vendor format
9314_20070806_184924_raw.mb56.gz 79.53MB Simrad multibeam vendor format
9315_20070806_201850_raw.mb56.gz 85.28MB Simrad multibeam vendor format
9316_20070806_214940_raw.mb56.gz 78.91MB Simrad multibeam vendor format
9317_20070806_231337_raw.mb56.gz 83.08MB Simrad multibeam vendor format
9318_20070807_004031_raw.mb56.gz 41.95MB Simrad multibeam vendor format
9319_20070807_014601_raw.mb56.gz 41.47MB Simrad multibeam vendor format
9320_20070807_025753_raw.mb56.gz 51.43MB Simrad multibeam vendor format
9321_20070807_035700_raw.mb56.gz 78.08MB Simrad multibeam vendor format
9322_20070807_054542_raw.mb56.gz 4.32MB Simrad multibeam vendor format
9323_20070807_055615_raw.mb56.gz 6.45MB Simrad multibeam vendor format
9324_20070807_062255_raw.mb56.gz 58.51MB Simrad multibeam vendor format
9325_20070807_072118_raw.mb56.gz 61.23MB Simrad multibeam vendor format
9326_20070807_082602_raw.mb56.gz 63.39MB Simrad multibeam vendor format
9327_20070807_095014_raw.mb56.gz 33.02MB Simrad multibeam vendor format
9328_20070807_103209_raw.mb56.gz 27.45MB Simrad multibeam vendor format
9329_20070807_110645_raw.mb56.gz 33.60MB Simrad multibeam vendor format
9330_20070807_113714_raw.mb56.gz 31.39MB Simrad multibeam vendor format
9331_20070807_120907_raw.mb56.gz 29.69MB Simrad multibeam vendor format
9332_20070807_123824_raw.mb56.gz 30.58MB Simrad multibeam vendor format
9333_20070808_000733_raw.mb56.gz 30.68MB Simrad multibeam vendor format
9334_20070808_003901_raw.mb56.gz 30.77MB Simrad multibeam vendor format
9335_20070808_011121_raw.mb56.gz 30.12MB Simrad multibeam vendor format
9336_20070808_015609_raw.mb56.gz 4.00MB Simrad multibeam vendor format
9337_20070808_020331_raw.mb56.gz 6.91MB Simrad multibeam vendor format
9338_20070808_022702_raw.mb56.gz 5.60MB Simrad multibeam vendor format
9339_20070808_023656_raw.mb56.gz 1.02MB Simrad multibeam vendor format
9340_20070808_024206_raw.mb56.gz 0.94MB Simrad multibeam vendor format
9341_20070808_030709_raw.mb56.gz 27.51MB Simrad multibeam vendor format
9342_20070808_034741_raw.mb56.gz 28.77MB Simrad multibeam vendor format
9343_20070808_042919_raw.mb56.gz 31.03MB Simrad multibeam vendor format
9344_20070808_051229_raw.mb56.gz 31.53MB Simrad multibeam vendor format
9345_20070808_055621_raw.mb56.gz 32.38MB Simrad multibeam vendor format
9346_20070808_063826_raw.mb56.gz 31.28MB Simrad multibeam vendor format
9347_20070808_072004_raw.mb56.gz 28.76MB Simrad multibeam vendor format
9348_20070808_075918_raw.mb56.gz 28.75MB Simrad multibeam vendor format
9349_20070808_084435_raw.mb56.gz 19.03MB Simrad multibeam vendor format
9350_20070808_091353_raw.mb56.gz 3.00MB Simrad multibeam vendor format
9351_20070808_101105_raw.mb56.gz 28.66MB Simrad multibeam vendor format
9352_20070808_103819_raw.mb56.gz 23.63MB Simrad multibeam vendor format
9353_20070808_105854_raw.mb56.gz 23.66MB Simrad multibeam vendor format
9354_20070808_112023_raw.mb56.gz 25.29MB Simrad multibeam vendor format
9355_20070808_114248_raw.mb56.gz 27.60MB Simrad multibeam vendor format
9356_20070808_120723_raw.mb56.gz 25.74MB Simrad multibeam vendor format
9357_20070808_123108_raw.mb56.gz 24.47MB Simrad multibeam vendor format
9358_20070808_125432_raw.mb56.gz 24.67MB Simrad multibeam vendor format
9359_20070808_131834_raw.mb56.gz 24.55MB Simrad multibeam vendor format
9360_20070808_134205_raw.mb56.gz 24.78MB Simrad multibeam vendor format
9361_20070808_140628_raw.mb56.gz 31.71MB Simrad multibeam vendor format
9362_20070808_143843_raw.mb56.gz 31.62MB Simrad multibeam vendor format
9363_20070808_151128_raw.mb56.gz 32.60MB Simrad multibeam vendor format
9364_20070808_154342_raw.mb56.gz 33.17MB Simrad multibeam vendor format
9365_20070808_161708_raw.mb56.gz 33.66MB Simrad multibeam vendor format
9366_20070808_165158_raw.mb56.gz 30.68MB Simrad multibeam vendor format
9367_20070808_173544_raw.mb56.gz 4.37MB Simrad multibeam vendor format
9368_20070808_174500_raw.mb56.gz 6.66MB Simrad multibeam vendor format
9369_20070808_175606_raw.mb56.gz 8.37MB Simrad multibeam vendor format
9370_20070808_181951_raw.mb56.gz 2.83MB Simrad multibeam vendor format
9371_20070808_183217_raw.mb56.gz 3.26MB Simrad multibeam vendor format
9372_20070808_184459_raw.mb56.gz 79.61MB Simrad multibeam vendor format
9373_20070808_205457_raw.mb56.gz 97.27MB Simrad multibeam vendor format
9374_20070808_223000_raw.mb56.gz 81.80MB Simrad multibeam vendor format
9375_20070809_001358_raw.mb56.gz 100.72MB Simrad multibeam vendor format
9376_20070809_015024_raw.mb56.gz 65.82MB Simrad multibeam vendor format
9377_20070809_025032_raw.mb56.gz 67.63MB Simrad multibeam vendor format
9378_20070809_145735_raw.mb56.gz 84.06MB Simrad multibeam vendor format
9379_20070809_165306_raw.mb56.gz 61.17MB Simrad multibeam vendor format
9380_20070809_175313_raw.mb56.gz 55.07MB Simrad multibeam vendor format
9381_20070809_184747_raw.mb56.gz 56.44MB Simrad multibeam vendor format
9382_20070809_194226_raw.mb56.gz 54.35MB Simrad multibeam vendor format
9383_20070809_203410_raw.mb56.gz 48.24MB Simrad multibeam vendor format
9384_20070809_212142_raw.mb56.gz 52.29MB Simrad multibeam vendor format
9385_20070809_221040_raw.mb56.gz 45.04MB Simrad multibeam vendor format
9386_20070809_231526_raw.mb56.gz 63.73MB Simrad multibeam vendor format
9387_20070810_002446_raw.mb56.gz 49.50MB Simrad multibeam vendor format
9388_20070810_012025_raw.mb56.gz 71.73MB Simrad multibeam vendor format
9389_20070810_025129_raw.mb56.gz 91.22MB Simrad multibeam vendor format
9390_20070810_043644_raw.mb56.gz 91.61MB Simrad multibeam vendor format
9391_20070810_061608_raw.mb56.gz 88.47MB Simrad multibeam vendor format
9392_20070810_074458_raw.mb56.gz 53.87MB Simrad multibeam vendor format
9393_20070810_083738_raw.mb56.gz 49.48MB Simrad multibeam vendor format
9394_20070810_092527_raw.mb56.gz 16.11MB Simrad multibeam vendor format
9395_20070810_094331_raw.mb56.gz 16.62MB Simrad multibeam vendor format
9396_20070810_101339_raw.mb56.gz 2.17MB Simrad multibeam vendor format
9397_20070810_102152_raw.mb56.gz 3.33MB Simrad multibeam vendor format
9398_20070810_103425_raw.mb56.gz 6.54MB Simrad multibeam vendor format
9399_20070810_105158_raw.mb56.gz 24.49MB Simrad multibeam vendor format
9400_20070810_121501_raw.mb56.gz 89.51MB Simrad multibeam vendor format
9401_20070810_134812_raw.mb56.gz 88.21MB Simrad multibeam vendor format
9402_20070810_152733_raw.mb56.gz 30.38MB Simrad multibeam vendor format
9403_20070810_163612_raw.mb56.gz 51.55MB Simrad multibeam vendor format
9404_20070810_190053_raw.mb56.gz 52.93MB Simrad multibeam vendor format
9405_20070810_195043_raw.mb56.gz 49.48MB Simrad multibeam vendor format
9406_20070810_203919_raw.mb56.gz 59.96MB Simrad multibeam vendor format
9407_20070810_213346_raw.mb56.gz 54.12MB Simrad multibeam vendor format
9408_20070810_222324_raw.mb56.gz 59.36MB Simrad multibeam vendor format
9409_20070810_232412_raw.mb56.gz 63.21MB Simrad multibeam vendor format
9410_20070811_002855_raw.mb56.gz 64.29MB Simrad multibeam vendor format
9411_20070811_012830_raw.mb56.gz 72.54MB Simrad multibeam vendor format
9412_20070811_023559_raw.mb56.gz 67.61MB Simrad multibeam vendor format
9413_20070811_033846_raw.mb56.gz 72.38MB Simrad multibeam vendor format
9414_20070811_044648_raw.mb56.gz 70.15MB Simrad multibeam vendor format
9415_20070811_055120_raw.mb56.gz 67.02MB Simrad multibeam vendor format
9416_20070811_084330_raw.mb56.gz 19.25MB Simrad multibeam vendor format
9417_20070811_090427_raw.mb56.gz 19.37MB Simrad multibeam vendor format
9418_20070811_092757_raw.mb56.gz 2.49MB Simrad multibeam vendor format
9419_20070811_094044_raw.mb56.gz 15.39MB Simrad multibeam vendor format
9420_20070811_095656_raw.mb56.gz 14.16MB Simrad multibeam vendor format
9421_20070811_101202_raw.mb56.gz 13.75MB Simrad multibeam vendor format
9422_20070811_102612_raw.mb56.gz 16.07MB Simrad multibeam vendor format
9423_20070811_104259_raw.mb56.gz 13.66MB Simrad multibeam vendor format
9424_20070811_110106_raw.mb56.gz 17.58MB Simrad multibeam vendor format
9425_20070811_111743_raw.mb56.gz 13.09MB Simrad multibeam vendor format
9426_20070811_113037_raw.mb56.gz 17.02MB Simrad multibeam vendor format
9427_20070811_114728_raw.mb56.gz 11.15MB Simrad multibeam vendor format
9428_20070811_115819_raw.mb56.gz 10.48MB Simrad multibeam vendor format
9429_20070811_121511_raw.mb56.gz 10.91MB Simrad multibeam vendor format
9430_20070811_122955_raw.mb56.gz 12.82MB Simrad multibeam vendor format
9431_20070811_124251_raw.mb56.gz 9.95MB Simrad multibeam vendor format
9432_20070811_125503_raw.mb56.gz 10.53MB Simrad multibeam vendor format
9433_20070811_130755_raw.mb56.gz 7.59MB Simrad multibeam vendor format
9434_20070811_132053_raw.mb56.gz 5.41MB Simrad multibeam vendor format
9435_20070811_132806_raw.mb56.gz 4.12MB Simrad multibeam vendor format
9436_20070811_133414_raw.mb56.gz 3.21MB Simrad multibeam vendor format
9437_20070811_133857_raw.mb56.gz 1.75MB Simrad multibeam vendor format
9438_20070811_140931_raw.mb56.gz 74.62MB Simrad multibeam vendor format
9439_20070811_153720_raw.mb56.gz 67.50MB Simrad multibeam vendor format
9440_20070811_164408_raw.mb56.gz 65.49MB Simrad multibeam vendor format
9441_20070811_175042_raw.mb56.gz 67.82MB Simrad multibeam vendor format
9442_20070811_185906_raw.mb56.gz 65.64MB Simrad multibeam vendor format
9443_20070811_200542_raw.mb56.gz 68.32MB Simrad multibeam vendor format
9444_20070811_211332_raw.mb56.gz 69.37MB Simrad multibeam vendor format
9445_20070811_221921_raw.mb56.gz 66.09MB Simrad multibeam vendor format
9446_20070811_232620_raw.mb56.gz 65.13MB Simrad multibeam vendor format
9447_20070812_003519_raw.mb56.gz 67.70MB Simrad multibeam vendor format
9448_20070812_014008_raw.mb56.gz 72.80MB Simrad multibeam vendor format
9449_20070812_024857_raw.mb56.gz 66.61MB Simrad multibeam vendor format
9450_20070812_035329_raw.mb56.gz 67.56MB Simrad multibeam vendor format
9451_20070812_045741_raw.mb56.gz 64.48MB Simrad multibeam vendor format
9452_20070812_055956_raw.mb56.gz 67.48MB Simrad multibeam vendor format
9453_20070812_070428_raw.mb56.gz 61.43MB Simrad multibeam vendor format
9454_20070812_080444_raw.mb56.gz 24.78MB Simrad multibeam vendor format
9455_20070812_083406_raw.mb56.gz 8.89MB Simrad multibeam vendor format
9456_20070812_092218_raw.mb56.gz 8.78MB Simrad multibeam vendor format
9457_20070812_093421_raw.mb56.gz 42.43MB Simrad multibeam vendor format
9458_20070812_101631_raw.mb56.gz 63.02MB Simrad multibeam vendor format
9459_20070812_111520_raw.mb56.gz 79.41MB Simrad multibeam vendor format
9460_20070812_122902_raw.mb56.gz 55.28MB Simrad multibeam vendor format
9461_20070812_132706_raw.mb56.gz 77.88MB Simrad multibeam vendor format
9462_20070812_144601_raw.mb56.gz 80.09MB Simrad multibeam vendor format
9463_20070812_160105_raw.mb56.gz 40.31MB Simrad multibeam vendor format
9464_20070812_165434_raw.mb56.gz 60.22MB Simrad multibeam vendor format
9465_20070812_175914_raw.mb56.gz 68.01MB Simrad multibeam vendor format
9466_20070812_190451_raw.mb56.gz 78.58MB Simrad multibeam vendor format
9467_20070812_202002_raw.mb56.gz 61.08MB Simrad multibeam vendor format
9468_20070812_211545_raw.mb56.gz 66.37MB Simrad multibeam vendor format
9469_20070812_221517_raw.mb56.gz 61.66MB Simrad multibeam vendor format
9470_20070812_231301_raw.mb56.gz 74.71MB Simrad multibeam vendor format
9471_20070813_002107_raw.mb56.gz 64.12MB Simrad multibeam vendor format
9472_20070813_012037_raw.mb56.gz 73.75MB Simrad multibeam vendor format
9473_20070813_022727_raw.mb56.gz 60.71MB Simrad multibeam vendor format
9474_20070813_032558_raw.mb56.gz 68.81MB Simrad multibeam vendor format
9475_20070813_042851_raw.mb56.gz 57.39MB Simrad multibeam vendor format
9476_20070813_052202_raw.mb56.gz 61.08MB Simrad multibeam vendor format
9477_20070813_061744_raw.mb56.gz 56.89MB Simrad multibeam vendor format
9478_20070813_071049_raw.mb56.gz 54.26MB Simrad multibeam vendor format
9479_20070813_082037_raw.mb56.gz 1.31MB Simrad multibeam vendor format
9480_20070813_082956_raw.mb56.gz 2.97MB Simrad multibeam vendor format
9482_20070813_084944_raw.mb56.gz 3.69MB Simrad multibeam vendor format
9483_20070813_090536_raw.mb56.gz 2.39MB Simrad multibeam vendor format
9484_20070813_093001_raw.mb56.gz 8.51MB Simrad multibeam vendor format
9485_20070813_094101_raw.mb56.gz 2.75MB Simrad multibeam vendor format
9486_20070813_095829_raw.mb56.gz 2.97MB Simrad multibeam vendor format
9487_20070813_100425_raw.mb56.gz 3.21MB Simrad multibeam vendor format
9488_20070813_110357_raw.mb56.gz 39.59MB Simrad multibeam vendor format
9489_20070813_115229_raw.mb56.gz 22.77MB Simrad multibeam vendor format
9490_20070813_122313_raw.mb56.gz 15.13MB Simrad multibeam vendor format
9491_20070813_125302_raw.mb56.gz 55.70MB Simrad multibeam vendor format
9492_20070813_134857_raw.mb56.gz 22.85MB Simrad multibeam vendor format
9493_20070813_141511_raw.mb56.gz 1.62MB Simrad multibeam vendor format
9494_20070813_141853_raw.mb56.gz 1.90MB Simrad multibeam vendor format
9495_20070813_142428_raw.mb56.gz 3.37MB Simrad multibeam vendor format
9496_20070813_143142_raw.mb56.gz 3.81MB Simrad multibeam vendor format
9497_20070813_144218_raw.mb56.gz 2.60MB Simrad multibeam vendor format
9498_20070813_150109_raw.mb56.gz 33.58MB Simrad multibeam vendor format
9499_20070813_154538_raw.mb56.gz 16.72MB Simrad multibeam vendor format
9500_20070813_160735_raw.mb56.gz 57.32MB Simrad multibeam vendor format
9501_20070813_170007_raw.mb56.gz 50.53MB Simrad multibeam vendor format
9502_20070813_175052_raw.mb56.gz 48.75MB Simrad multibeam vendor format
9503_20070813_183957_raw.mb56.gz 57.79MB Simrad multibeam vendor format
9505_20070813_195147_raw.mb56.gz 40.16MB Simrad multibeam vendor format
9506_20070813_202952_raw.mb56.gz 42.38MB Simrad multibeam vendor format
9507_20070813_211157_raw.mb56.gz 41.99MB Simrad multibeam vendor format
9508_20070813_215233_raw.mb56.gz 41.08MB Simrad multibeam vendor format
9509_20070813_223210_raw.mb56.gz 36.97MB Simrad multibeam vendor format
9510_20070813_231823_raw.mb56.gz 44.13MB Simrad multibeam vendor format
9511_20070814_000001_raw.mb56.gz 56.71MB Simrad multibeam vendor format
9512_20070814_010628_raw.mb56.gz 23.88MB Simrad multibeam vendor format
9513_20070814_013857_raw.mb56.gz 37.71MB Simrad multibeam vendor format
0001_20070707_024709_Voyager.mb56.gz 218.99MB Simrad multibeam vendor format
0002_20070707_034709_Voyager.mb56.gz 115.81MB Simrad multibeam vendor format
0003_20070707_042551_Voyager.mb56.gz 324.68MB Simrad multibeam vendor format
0004_20070707_060309_Voyager.mb56.gz 323.09MB Simrad multibeam vendor format
0005_20070707_073952_Voyager.mb56.gz 315.89MB Simrad multibeam vendor format
0006_20070707_092318_Voyager.mb56.gz 320.51MB Simrad multibeam vendor format
0007_20070707_110844_Voyager.mb56.gz 323.32MB Simrad multibeam vendor format
0008_20070707_130119_Voyager.mb56.gz 353.44MB Simrad multibeam vendor format
0009_20070707_150631_Voyager.mb56.gz 333.11MB Simrad multibeam vendor format
0010_20070707_164633_Voyager.mb56.gz 321.21MB Simrad multibeam vendor format
0011_20070707_183023_Voyager.mb56.gz 315.21MB Simrad multibeam vendor format
0012_20070707_200801_Voyager.mb56.gz 308.82MB Simrad multibeam vendor format
0013_20070707_214000_Voyager.mb56.gz 10.54MB Simrad multibeam vendor format
0013_20070707_214759_Voyager.mb56.gz 282.27MB Simrad multibeam vendor format
0014_20070707_231257_Voyager.mb56.gz 331.23MB Simrad multibeam vendor format
0015_20070708_005142_Voyager.mb56.gz 324.16MB Simrad multibeam vendor format
0016_20070708_022813_Voyager.mb56.gz 311.43MB Simrad multibeam vendor format
0017_20070708_040220_Voyager.mb56.gz 334.65MB Simrad multibeam vendor format
0018_20070708_054107_Voyager.mb56.gz 336.63MB Simrad multibeam vendor format
0019_20070708_135122_Voyager.mb56.gz 88.48MB Simrad multibeam vendor format
0020_20070708_144015_Voyager.mb56.gz 202.78MB Simrad multibeam vendor format
0021_20070708_155051_Voyager.mb56.gz 28.92MB Simrad multibeam vendor format
0022_20070708_162615_Voyager.mb56.gz 99.89MB Simrad multibeam vendor format
0023_20070708_170257_Voyager.mb56.gz 132.11MB Simrad multibeam vendor format
0024_20070708_174627_Voyager.mb56.gz 116.0KB Simrad multibeam vendor format
0024_20070708_175757_Voyager.mb56.gz 169.83MB Simrad multibeam vendor format
0025_20070708_185849_Voyager.mb56.gz 110.25MB Simrad multibeam vendor format
0026_20070708_221037_Voyager.mb56.gz 134.54MB Simrad multibeam vendor format
0027_20070708_225325_Voyager.mb56.gz 128.51MB Simrad multibeam vendor format
0028_20070708_233433_Voyager.mb56.gz 131.80MB Simrad multibeam vendor format
0029_20070709_001442_Voyager.mb56.gz 136.30MB Simrad multibeam vendor format
0030_20070709_011039_Voyager.mb56.gz 183.45MB Simrad multibeam vendor format
0066_20070712_100157_raw.mb56.gz 119.04MB Simrad multibeam vendor format
0067_20070712_131258_raw.mb56.gz 124.91MB Simrad multibeam vendor format
0068_20070712_164446_raw.mb56.gz 140.28MB Simrad multibeam vendor format
0069_20070712_205926_raw.mb56.gz 43.43MB Simrad multibeam vendor format
0070_20070712_220748_raw.mb56.gz 68.72MB Simrad multibeam vendor format
0071_20070713_000208_raw.mb56.gz 113.34MB Simrad multibeam vendor format
0072_20070713_030113_raw.mb56.gz 84.43MB Simrad multibeam vendor format
0073_20070713_051728_raw.mb56.gz 89.55MB Simrad multibeam vendor format
0074_20070713_074121_raw.mb56.gz 85.67MB Simrad multibeam vendor format
0031_20070709_045353_Voyager.mb56.gz 69.13MB Simrad multibeam vendor format
0001_20070721_154040_raw.mb56.gz 285.05MB Simrad multibeam vendor format
0002_20070721_201750_raw.mb56.gz 61.57MB Simrad multibeam vendor format
0002_20070721_223758_raw.mb56.gz 239.08MB Simrad multibeam vendor format
0003_20070722_023639_raw.mb56.gz 2.18MB Simrad multibeam vendor format
0004_20070722_023904_raw.mb56.gz 285.95MB Simrad multibeam vendor format
0005_20070722_071207_raw.mb56.gz 284.51MB Simrad multibeam vendor format
0006_20070722_115111_raw.mb56.gz 260.78MB Simrad multibeam vendor format
0007_20070723_162933_raw.mb56.gz 273.72MB Simrad multibeam vendor format
0008_20070723_204517_raw.mb56.gz 228.39MB Simrad multibeam vendor format
0009_20070724_023112_raw.mb56.gz 43.44MB Simrad multibeam vendor format
0010_20070724_035332_raw.mb56.gz 277.18MB Simrad multibeam vendor format
0011_20070724_083239_raw.mb56.gz 17.13MB Simrad multibeam vendor format
0012_20070724_085449_raw.mb56.gz 281.13MB Simrad multibeam vendor format
0013_20070724_143640_raw.mb56.gz 15.19MB Simrad multibeam vendor format
0014_20070724_150044_raw.mb56.gz 2.47MB Simrad multibeam vendor format
0015_20070724_152605_raw.mb56.gz 14.97MB Simrad multibeam vendor format
0016_20070724_161716_raw.mb56.gz 9.45MB Simrad multibeam vendor format
0017_20070724_170214_raw.mb56.gz 13.64MB Simrad multibeam vendor format
0018_20070724_175232_raw.mb56.gz 11.04MB Simrad multibeam vendor format
0019_20070724_181013_raw.mb56.gz 11.95MB Simrad multibeam vendor format
0020_20070724_185636_raw.mb56.gz 15.08MB Simrad multibeam vendor format
0021_20070724_194601_raw.mb56.gz 9.93MB Simrad multibeam vendor format
0022_20070728_122311_raw.mb56.gz 94.06MB Simrad multibeam vendor format
0023_20070728_140742_raw.mb56.gz 95.73MB Simrad multibeam vendor format
0024_20070728_160511_raw.mb56.gz 90.32MB Simrad multibeam vendor format
0025_20070728_175322_raw.mb56.gz 93.18MB Simrad multibeam vendor format
0026_20070728_193615_raw.mb56.gz 95.69MB Simrad multibeam vendor format
0027_20070728_214151_raw.mb56.gz 5.93MB Simrad multibeam vendor format
0028_20070728_222343_raw.mb56.gz 8.79MB Simrad multibeam vendor format
0029_20070728_230435_raw.mb56.gz 8.98MB Simrad multibeam vendor format
0030_20070728_232836_raw.mb56.gz 44.97MB Simrad multibeam vendor format
0031_20070729_004609_raw.mb56.gz 73.95MB Simrad multibeam vendor format
0032_20070729_021548_raw.mb56.gz 71.76MB Simrad multibeam vendor format
0033_20070729_035246_raw.mb56.gz 66.86MB Simrad multibeam vendor format
0034_20070729_052346_raw.mb56.gz 54.19MB Simrad multibeam vendor format
0035_20070729_065811_raw.mb56.gz 62.84MB Simrad multibeam vendor format
0036_20070729_082347_raw.mb56.gz 70.72MB Simrad multibeam vendor format
0037_20070729_095805_raw.mb56.gz 8.58MB Simrad multibeam vendor format
0038_20070729_105202_raw.mb56.gz 11.73MB Simrad multibeam vendor format
0039_20070729_121622_raw.mb56.gz 147.90MB Simrad multibeam vendor format
0040_20070729_170851_raw.mb56.gz 141.04MB Simrad multibeam vendor format
0041_20070729_211156_raw.mb56.gz 157.18MB Simrad multibeam vendor format
0042_20070730_010003_raw.mb56.gz 160.52MB Simrad multibeam vendor format
0043_20070730_050348_raw.mb56.gz 167.40MB Simrad multibeam vendor format
0044_20070730_103539_raw.mb56.gz 9.40MB Simrad multibeam vendor format
0045_20070730_112104_raw.mb56.gz 32.13MB Simrad multibeam vendor format
0046_20070730_124534_raw.mb56.gz 6.16MB Simrad multibeam vendor format
0047_20070730_135954_raw.mb56.gz 8.81MB Simrad multibeam vendor format
0048_20070730_145108_raw.mb56.gz 7.38MB Simrad multibeam vendor format
0049_20070730_154011_raw.mb56.gz 4.12MB Simrad multibeam vendor format
0050_20070730_162641_raw.mb56.gz 7.78MB Simrad multibeam vendor format
0051_20070806_051514_raw.mb56.gz 31.91MB Simrad multibeam vendor format
0052_20070806_061241_raw.mb56.gz 29.06MB Simrad multibeam vendor format
0053_20070806_124934_raw.mb56.gz 71.75MB Simrad multibeam vendor format
0054_20070806_142633_raw.mb56.gz 72.23MB Simrad multibeam vendor format
0055_20070806_163809_raw.mb56.gz 16.46MB Simrad multibeam vendor format
0056_20070806_172548_raw.mb56.gz 13.29MB Simrad multibeam vendor format
0057_20070807_132130_raw.mb56.gz 64.21MB Simrad multibeam vendor format
0058_20070807_154810_raw.mb56.gz 4.36MB Simrad multibeam vendor format
0059_20070807_160634_raw.mb56.gz 8.85MB Simrad multibeam vendor format
0060_20070807_163733_raw.mb56.gz 8.23MB Simrad multibeam vendor format

Metadata Files: 1

Files File Size Description
CV07_01_Multibeam.xml NGDC created ISO metadata